User: anonymous   Login
Location: Kernascl�den
(48.0062°N, 3.3198°W)
Time: 20:21:26
(UTC+00:00)
Language:

H-2A R/B - Orbit

View from above orbital plane
View from above orbital plane
View from above satellite
View from above satellite

Ground track
Ground track

The orbit data is extracted from the following two-line orbital elements,

1 27601U 02056E   21111.83100959 -.00000009  00000-0  11156-4 0  9998
2 27601  98.1947 137.1940 0073403  79.0316  93.4462 14.31990896958824
Epoch (UTC): 21 April 2021 19:56:39
Eccentricity: 0.0073403
inclination: 98.1947°
perigee height: 732 km
apogee height: 837 km
right ascension of ascending node: 137.1940°
argument of perigee: 79.0316°
revolutions per day: 14.31990896
mean anomaly at epoch: 93.4462°
orbit number at epoch: 95882

The dashed part of the orbit path shows where the satellite is in the earth's shadow,  

DLR